,,,PA_Meas_PMT16A,,PR_Meas_QMR101_102,,RH_Meas_QMH101,,SR_Meas_QMS101,,TA_Meas_QMH101,,GenWind,,GenWind,
date,time,status,PA,status,PR,status,RH,status,SR,status,TA,status,DirAvg,status,SpdAvg,
2009-03-26, 00:00:05,VALID,1003.31,VALID,0,VALID,95.1414,VALID,0,VALID,22.6299,VALID,51,VALID,0.447656,
2009-03-26, 00:01:05,VALID,1003.3,VALID,0,VALID,95.1566,VALID,0,VALID,22.6299,VALID,48,VALID,0.474609,
2009-03-26, 00:02:05,VALID,1003.29,VALID,0,VALID,95.2024,VALID,0,VALID,22.6104,VALID,351,VALID,0.645312,
2009-03-26, 00:03:05,VALID,1003.25,VALID,0,VALID,95.2253,VALID,0,VALID,22.6299,VALID,341,VALID,0.578125,
2009-03-26, 00:04:05,VALID,1003.21,VALID,0,VALID,95.2711,VALID,0,VALID,22.6299,VALID,298,VALID,0.634375,
2009-03-26, 00:05:05,VALID,1003.19,VALID,0,VALID,95.2711,VALID,0,VALID,22.6299,VALID,298,VALID,0.355859,
2009-03-26, 00:06:04,VALID,1003.2,VALID,0,VALID,95.3092,VALID,0,VALID,22.6299,VALID,298,VALID,0.24375,
2009-03-26, 00:07:04,VALID,1003.16,VALID,0,VALID,95.3397,VALID,0,VALID,22.6299,VALID,298,VALID,0,
2009-03-26, 00:08:04,VALID,1003.17,VALID,0,VALID,95.3245,VALID,0,VALID,22.6299,VALID,298,VALID,0,
2009-03-26, 00:09:04,VALID,1003.13,VALID,0,VALID,95.355,VALID,0,VALID,22.5892,VALID,298,VALID,0.0957031,
2009-03-26, 00:10:04,VALID,1003.15,VALID,0,VALID,95.3779,VALID,0,VALID,22.6104,VALID,298,VALID,0.198047,
2009-03-26, 00:11:04,VALID,1003.16,VALID,0,VALID,95.416,VALID,0,VALID,22.6299,VALID,298,VALID,0.33125,
2009-03-26, 00:12:04,VALID,1003.15,VALID,0,VALID,95.416,VALID,0,VALID,22.6282,VALID,298,VALID,0.341406,
2009-03-26, 00:13:04,VALID,1003.18,VALID,0,VALID,95.4313,VALID,0,VALID,22.6689,VALID,298,VALID,0.474609,
2009-03-26, 00:14:04,VALID,1003.17,VALID,0,VALID,95.4465,VALID,0,VALID,22.6494,VALID,298,VALID,0.606641,
2009-03-26, 00:15:04,VALID,1003.17,VALID,0.5,VALID,95.4465,VALID,0,VALID,22.6494,VALID,298,VALID,0.525781,
2009-03-26, 00:16:04,VALID,1003.14,VALID,0,VALID,95.4542,VALID,0,VALID,22.6494,VALID,298,VALID,0.501953,
2009-03-26, 00:17:04,VALID,1003.15,VALID,0,VALID,95.4771,VALID,0,VALID,22.6689,VALID,298,VALID,0.383594,
2009-03-26, 00:18:04,VALID,1003.12,VALID,0,VALID,95.4923,VALID,0,VALID,22.6689,VALID,298,VALID,0.327734,
2009-03-26, 00:19:04,VALID,1003.13,VALID,0,VALID,95.4847,VALID,0,VALID,22.6884,VALID,298,VALID,0.3375,
2009-03-26, 00:20:04,VALID,1003.14,VALID,0,VALID,95.4771,VALID,0,VALID,22.6689,VALID,298,VALID,0.478516,
2009-03-26, 00:21:04,VALID,1003.1,VALID,0,VALID,95.4923,VALID,0,VALID,22.6494,VALID,298,VALID,0.269922,
2009-03-26, 00:22:04,VALID,1003.1,VALID,0,VALID,95.5152,VALID,0,VALID,22.6477,VALID,298,VALID,0.0617188,
2009-03-26, 00:23:04,VALID,1003.09,VALID,0,VALID,95.5,VALID,0,VALID,22.6884,VALID,298,VALID,0,
2009-03-26, 00:24:04,VALID,1003.07,VALID,0,VALID,95.5228,VALID,0,VALID,22.6689,VALID,298,VALID,0.387109,
2009-03-26, 00:25:04,VALID,1003.06,VALID,0,VALID,95.561,VALID,0,VALID,22.6884,VALID,298,VALID,0.227344,
2009-03-26, 00:26:04,VALID,1003.05,VALID,0,VALID,95.5152,VALID,0,VALID,22.6884,VALID,298,VALID,0.210938,
2009-03-26, 00:27:04,VALID,1003.02,VALID,0,VALID,95.5534,VALID,0,VALID,22.6884,VALID,298,VALID,0.152734,
2009-03-26, 00:28:04,VALID,1003.02,VALID,0,VALID,95.5534,VALID,0,VALID,22.6884,VALID,298,VALID,0.155469,
2009-03-26, 00:29:04,VALID,1003.02,VALID,0,VALID,95.5228,VALID,0,VALID,22.6689,VALID,298,VALID,0.375,
2009-03-26, 00:30:04,VALID,1002.94,VALID,0,VALID,95.5152,VALID,0,VALID,22.6689,VALID,298,VALID,0.350781,
2009-03-26, 00:31:04,VALID,1002.95,VALID,0,VALID,95.5076,VALID,0,VALID,22.6494,VALID,298,VALID,0.218359,
2009-03-26, 00:32:04,VALID,1002.93,VALID,0,VALID,95.5381,VALID,0,VALID,22.6299,VALID,298,VALID,0.0558594,
2009-03-26, 00:33:04,VALID,1002.94,VALID,0,VALID,95.5305,VALID,0,VALID,22.6104,VALID,298,VALID,0,
2009-03-26, 00:34:04,VALID,1002.91,VALID,0,VALID,95.5305,VALID,0,VALID,22.5892,VALID,298,VALID,0.174219,
2009-03-26, 00:35:04,VALID,1002.93,VALID,0,VALID,95.5457,VALID,0,VALID,22.6104,VALID,298,VALID,0.230859,
2009-03-26, 00:36:04,VALID,1002.87,VALID,0,VALID,95.5534,VALID,0,VALID,22.5892,VALID,229,VALID,0.623438,
2009-03-26, 00:37:04,VALID,1002.86,VALID,0,VALID,95.5534,VALID,0,VALID,22.6299,VALID,222,VALID,0.889844,
2009-03-26, 00:38:04,VALID,1002.85,VALID,0,VALID,95.5915,VALID,0,VALID,22.6299,VALID,211,VALID,0.582031,
2009-03-26, 00:39:04,VALID,1002.81,VALID,0,VALID,95.5915,VALID,0,VALID,22.6494,VALID,214,VALID,0.694922,
2009-03-26, 00:40:04,VALID,1002.83,VALID,0,VALID,95.5915,VALID,0,VALID,22.6689,VALID,210,VALID,0.880469,
2009-03-26, 00:41:04,VALID,1002.78,VALID,0,VALID,95.6144,VALID,0,VALID,22.6867,VALID,210,VALID,0.625,
2009-03-26, 00:42:04,VALID,1002.76,VALID,0,VALID,95.6373,VALID,0,VALID,22.7274,VALID,199,VALID,0.835938,
2009-03-26, 00:43:04,VALID,1002.74,VALID,0,VALID,95.6144,VALID,0,VALID,22.7274,VALID,214,VALID,0.634375,
2009-03-26, 00:44:04,VALID,1002.74,VALID,0,VALID,95.5686,VALID,0,VALID,22.6494,VALID,215,VALID,0.767187,
2009-03-26, 00:45:04,VALID,1002.69,VALID,0,VALID,95.561,VALID,0,VALID,22.6494,VALID,202,VALID,0.523828,
2009-03-26, 00:46:04,VALID,1002.69,VALID,0,VALID,95.5762,VALID,0,VALID,22.6299,VALID,202,VALID,0.341797,
2009-03-26, 00:47:04,VALID,1002.71,VALID,0,VALID,95.5915,VALID,0,VALID,22.6104,VALID,202,VALID,0.335938,
2009-03-26, 00:48:04,VALID,1002.71,VALID,0,VALID,95.6068,VALID,0,VALID,22.5892,VALID,202,VALID,0.230078,
2009-03-26, 00:49:04,VALID,1002.71,VALID,0,VALID,95.622,VALID,0,VALID,22.6299,VALID,202,VALID,0.171875,
2009-03-26, 00:50:04,VALID,1002.74,VALID,0,VALID,95.6373,VALID,0,VALID,22.6282,VALID,183,VALID,0.610937,
2009-03-26, 00:51:04,VALID,1002.75,VALID,0,VALID,95.6678,VALID,0,VALID,22.6689,VALID,178,VALID,0.658594,
2009-03-26, 00:52:04,VALID,1002.75,VALID,0,VALID,95.6602,VALID,0,VALID,22.6884,VALID,158,VALID,0.902734,
2009-03-26, 00:53:04,VALID,1002.72,VALID,0,VALID,95.6525,VALID,0,VALID,22.6867,VALID,149,VALID,1.15625,
2009-03-26, 00:54:04,VALID,1002.68,VALID,0,VALID,95.6602,VALID,0,VALID,22.7274,VALID,154,VALID,1.11172,
2009-03-26, 00:55:04,VALID,1002.74,VALID,0,VALID,95.6449,VALID,0,VALID,22.7062,VALID,158,VALID,0.800781,
2009-03-26, 00:56:04,VALID,1002.7,VALID,0,VALID,95.6449,VALID,0,VALID,22.7469,VALID,143,VALID,0.967578,
2009-03-26, 00:57:04,VALID,1002.69,VALID,0,VALID,95.6525,VALID,0,VALID,22.7469,VALID,145,VALID,0.873828,
2009-03-26, 00:58:04,VALID,1002.67,VALID,0,VALID,95.6602,VALID,0,VALID,22.7452,VALID,140,VALID,0.901953,
2009-03-26, 00:59:04,VALID,1002.68,VALID,0,VALID,95.6449,VALID,0,VALID,22.7647,VALID,153,VALID,1.13555,
2009-03-26, 01:00:04,VALID,1002.63,VALID,0,VALID,95.6525,VALID,0,VALID,22.7647,VALID,150,VALID,0.841797,
2009-03-26, 01:01:04,VALID,1002.63,VALID,0,VALID,95.6525,VALID,0,VALID,22.786,VALID,148,VALID,0.928906,
2009-03-26, 01:02:04,VALID,1002.63,VALID,0,VALID,95.6678,VALID,0,VALID,22.8055,VALID,145,VALID,0.659375,
2009-03-26, 01:03:04,VALID,1002.6,VALID,0,VALID,95.6449,VALID,0,VALID,22.8055,VALID,135,VALID,0.921875,
2009-03-26, 01:04:04,VALID,1002.57,VALID,0,VALID,95.6297,VALID,0,VALID,22.786,VALID,128,VALID,0.956641,
2009-03-26, 01:05:04,VALID,1002.55,VALID,0,VALID,95.6373,VALID,0,VALID,22.7842,VALID,130,VALID,0.733984,
2009-03-26, 01:06:04,VALID,1002.56,VALID,0,VALID,95.6068,VALID,0,VALID,22.7842,VALID,138,VALID,0.738281,
2009-03-26, 01:07:04,VALID,1002.52,VALID,0,VALID,95.5991,VALID,0,VALID,22.7647,VALID,139,VALID,0.676172,
2009-03-26, 01:08:04,VALID,1002.51,VALID,0,VALID,95.6297,VALID,0,VALID,22.7647,VALID,138,VALID,0.579297,
2009-03-26, 01:09:04,VALID,1002.51,VALID,0,VALID,95.6449,VALID,0,VALID,22.8055,VALID,138,VALID,0.783984,
2009-03-26, 01:10:04,VALID,1002.47,VALID,0,VALID,95.6068,VALID,0,VALID,22.7842,VALID,132,VALID,0.850781,
2009-03-26, 01:11:04,VALID,1002.45,VALID,0,VALID,95.622,VALID,0,VALID,22.8055,VALID,133,VALID,0.798047,
2009-03-26, 01:12:04,VALID,1002.43,VALID,0,VALID,95.6297,VALID,0,VALID,22.7842,VALID,134,VALID,0.671094,
2009-03-26, 01:13:04,VALID,1002.43,VALID,0,VALID,95.6373,VALID,0,VALID,22.825,VALID,132,VALID,0.378906,
2009-03-26, 01:14:04,VALID,1002.42,VALID,0,VALID,95.6297,VALID,0,VALID,22.825,VALID,121,VALID,0.794141,
2009-03-26, 01:15:04,VALID,1002.41,VALID,0,VALID,95.6297,VALID,0,VALID,22.825,VALID,112,VALID,0.560156,
2009-03-26, 01:16:04,VALID,1002.4,VALID,0,VALID,95.6068,VALID,0,VALID,22.7842,VALID,112,VALID,0.3375,
2009-03-26, 01:17:04,VALID,1002.35,VALID,0,VALID,95.561,VALID,0,VALID,22.786,VALID,140,VALID,0.896875,
2009-03-26, 01:18:04,VALID,1002.35,VALID,0,VALID,95.5915,VALID,0,VALID,22.7452,VALID,131,VALID,0.5875,
2009-03-26, 01:19:04,VALID,1002.36,VALID,0,VALID,95.5991,VALID,0,VALID,22.7664,VALID,132,VALID,0.541016,
2009-03-26, 01:20:04,VALID,1002.31,VALID,0,VALID,95.5915,VALID,0,VALID,22.7664,VALID,132,VALID,0.497656,
2009-03-26, 01:21:04,VALID,1002.27,VALID,0,VALID,95.5991,VALID,0,VALID,22.7664,VALID,131,VALID,0.363281,
2009-03-26, 01:22:04,VALID,1002.27,VALID,0,VALID,95.5839,VALID,0,VALID,22.7664,VALID,130,VALID,0.723047,
2009-03-26, 01:23:04,VALID,1002.23,VALID,0,VALID,95.5762,VALID,0,VALID,22.7274,VALID,130,VALID,0.106641,
2009-03-26, 01:24:04,VALID,1002.23,VALID,0,VALID,95.5686,VALID,0,VALID,22.7274,VALID,130,VALID,0.115625,
2009-03-26, 01:25:04,VALID,1002.2,VALID,0,VALID,95.5686,VALID,0,VALID,22.7079,VALID,130,VALID,0,
2009-03-26, 01:26:04,VALID,1002.2,VALID,0,VALID,95.5762,VALID,0,VALID,22.6867,VALID,130,VALID,0,
2009-03-26, 01:27:04,VALID,1002.18,VALID,0,VALID,95.5762,VALID,0,VALID,22.6672,VALID,130,VALID,0,
2009-03-26, 01:28:04,VALID,1002.19,VALID,0,VALID,95.5839,VALID,0,VALID,22.6477,VALID,130,VALID,0.340234,
2009-03-26, 01:29:04,VALID,1002.14,VALID,0,VALID,95.6373,VALID,0,VALID,22.7079,VALID,127,VALID,0.314453,
2009-03-26, 01:30:04,VALID,1002.11,VALID,0,VALID,95.6297,VALID,0,VALID,22.7062,VALID,113,VALID,0.444141,
2009-03-26, 01:31:04,VALID,1002.1,VALID,0,VALID,95.622,VALID,0,VALID,22.7274,VALID,125,VALID,0.544141,
2009-03-26, 01:32:04,VALID,1002.07,VALID,0,VALID,95.6373,VALID,0,VALID,22.7257,VALID,125,VALID,0.792188,
2009-03-26, 01:33:04,VALID,1002.05,VALID,0,VALID,95.5991,VALID,0,VALID,22.7469,VALID,126,VALID,1.12812,
2009-03-26, 01:34:04,VALID,1002.04,VALID,0,VALID,95.5762,VALID,0,VALID,22.6867,VALID,133,VALID,1.03203,
2009-03-26, 01:35:04,VALID,1002.02,VALID,0,VALID,95.561,VALID,0,VALID,22.7079,VALID,133,VALID,1.00781,
2009-03-26, 01:36:04,VALID,1002,VALID,0,VALID,95.5228,VALID,0,VALID,22.6884,VALID,134,VALID,1.50625,
2009-03-26, 01:37:04,VALID,1002.01,VALID,0,VALID,95.5534,VALID,0,VALID,22.6689,VALID,143,VALID,0.878906,
2009-03-26, 01:38:04,VALID,1001.95,VALID,0,VALID,95.5076,VALID,0,VALID,22.6477,VALID,143,VALID,1.14805,
2009-03-26, 01:39:04,VALID,1001.95,VALID,0,VALID,95.5076,VALID,0,VALID,22.6494,VALID,140,VALID,0.628906,
2009-03-26, 01:40:04,VALID,1001.93,VALID,0,VALID,95.4694,VALID,0,VALID,22.6494,VALID,145,VALID,0.735937,
2009-03-26, 01:41:04,VALID,1001.92,VALID,0,VALID,95.4618,VALID,0,VALID,22.6087,VALID,133,VALID,1.06797,
2009-03-26, 01:42:04,VALID,1001.9,VALID,0,VALID,95.4847,VALID,0,VALID,22.6087,VALID,147,VALID,0.525781,
2009-03-26, 01:43:04,VALID,1001.88,VALID,0,VALID,95.4618,VALID,0,VALID,22.6299,VALID,140,VALID,0.563281,
2009-03-26, 01:44:04,VALID,1001.87,VALID,0,VALID,95.4847,VALID,0,VALID,22.6104,VALID,138,VALID,0.380469,
2009-03-26, 01:45:04,VALID,1001.85,VALID,0,VALID,95.4389,VALID,0,VALID,22.6299,VALID,128,VALID,0.853516,
2009-03-26, 01:46:04,VALID,1001.83,VALID,0,VALID,95.4389,VALID,0,VALID,22.6104,VALID,127,VALID,0.379297,
2009-03-26, 01:47:04,VALID,1001.78,VALID,0,VALID,95.4237,VALID,0,VALID,22.5892,VALID,130,VALID,0.547656,
2009-03-26, 01:48:04,VALID,1001.79,VALID,0,VALID,95.4389,VALID,0,VALID,22.5714,VALID,130,VALID,0.221875,
2009-03-26, 01:49:04,VALID,1001.77,VALID,0,VALID,95.4465,VALID,0,VALID,22.5909,VALID,130,VALID,0.00351562,
2009-03-26, 01:50:04,VALID,1001.75,VALID,0,VALID,95.4389,VALID,0,VALID,22.5714,VALID,130,VALID,0,
2009-03-26, 01:51:04,VALID,1001.73,VALID,0,VALID,95.4542,VALID,0,VALID,22.5501,VALID,130,VALID,0,
2009-03-26, 01:52:04,VALID,1001.7,VALID,0,VALID,95.4542,VALID,0,VALID,22.5519,VALID,118,VALID,0.165234,
2009-03-26, 01:53:04,VALID,1001.68,VALID,0,VALID,95.5076,VALID,0,VALID,22.5501,VALID,93,VALID,0.454297,
2009-03-26, 01:54:04,VALID,1001.66,VALID,0,VALID,95.5381,VALID,0,VALID,22.5714,VALID,85,VALID,0.512109,
2009-03-26, 01:55:04,VALID,1001.69,VALID,0,VALID,95.5076,VALID,0,VALID,22.6104,VALID,82,VALID,0.661328,
2009-03-26, 01:56:04,VALID,1001.65,VALID,0,VALID,95.4694,VALID,0,VALID,22.5714,VALID,81,VALID,0.774609,
2009-03-26, 01:57:04,VALID,1001.64,VALID,0,VALID,95.4923,VALID,0,VALID,22.5714,VALID,69,VALID,0.508984,
2009-03-26, 01:58:04,VALID,1001.61,VALID,0,VALID,95.4237,VALID,0,VALID,22.5714,VALID,56,VALID,0.742969,
2009-03-26, 01:59:04,VALID,1001.59,VALID,0,VALID,95.355,VALID,0,VALID,22.5519,VALID,56,VALID,0.307813,
2009-03-26, 02:00:04,VALID,1001.6,VALID,0,VALID,95.3855,VALID,0,VALID,22.5128,VALID,53,VALID,0.292969,
2009-03-26, 02:01:04,VALID,1001.53,VALID,0,VALID,95.4389,VALID,0,VALID,22.5128,VALID,23,VALID,0.731641,
2009-03-26, 02:02:04,VALID,1001.52,VALID,0,VALID,95.4389,VALID,0,VALID,22.5128,VALID,32,VALID,0.792578,
2009-03-26, 02:03:04,VALID,1001.5,VALID,0,VALID,95.4618,VALID,0,VALID,22.4916,VALID,35,VALID,0.863281,
2009-03-26, 02:04:04,VALID,1001.5,VALID,0,VALID,95.4618,VALID,0,VALID,22.5323,VALID,45,VALID,0.678516,
2009-03-26, 02:05:04,VALID,1001.47,VALID,0,VALID,95.4618,VALID,0,VALID,22.5323,VALID,48,VALID,0.883594,
2009-03-26, 02:06:04,VALID,1001.49,VALID,0,VALID,95.5076,VALID,0,VALID,22.5323,VALID,50,VALID,0.691797,
2009-03-26, 02:07:04,VALID,1001.47,VALID,0,VALID,95.4313,VALID,0,VALID,22.4916,VALID,83,VALID,0.878906,
2009-03-26, 02:08:04,VALID,1001.43,VALID,0,VALID,95.4313,VALID,0,VALID,22.4933,VALID,75,VALID,0.930078,
2009-03-26, 02:09:04,VALID,1001.44,VALID,0,VALID,95.416,VALID,0,VALID,22.4933,VALID,88,VALID,1.30781,
2009-03-26, 02:10:04,VALID,1001.45,VALID,0,VALID,95.3855,VALID,0,VALID,22.4933,VALID,80,VALID,1.35703,
2009-03-26, 02:11:04,VALID,1001.44,VALID,0,VALID,95.3779,VALID,0,VALID,22.4721,VALID,69,VALID,1.18828,
2009-03-26, 02:12:04,VALID,1001.43,VALID,0,VALID,95.3855,VALID,0,VALID,22.4721,VALID,53,VALID,0.985937,
2009-03-26, 02:13:04,VALID,1001.43,VALID,0,VALID,95.3931,VALID,0,VALID,22.5128,VALID,19,VALID,0.652734,
2009-03-26, 02:14:04,VALID,1001.44,VALID,0,VALID,95.416,VALID,0,VALID,22.5128,VALID,343,VALID,1.07969,
2009-03-26, 02:15:04,VALID,1001.42,VALID,0,VALID,95.4542,VALID,0,VALID,22.5111,VALID,329,VALID,1.04492,
2009-03-26, 02:16:04,VALID,1001.43,VALID,0,VALID,95.4771,VALID,0,VALID,22.5519,VALID,326,VALID,1.00859,
2009-03-26, 02:17:04,VALID,1001.43,VALID,0,VALID,95.4313,VALID,0,VALID,22.5128,VALID,339,VALID,1.19961,
2009-03-26, 02:18:04,VALID,1001.43,VALID,0,VALID,95.416,VALID,0,VALID,22.4738,VALID,317,VALID,0.827734,
2009-03-26, 02:19:04,VALID,1001.4,VALID,0,VALID,95.4313,VALID,0,VALID,22.4738,VALID,314,VALID,0.282422,
2009-03-26, 02:20:04,VALID,1001.36,VALID,0,VALID,95.416,VALID,0,VALID,22.4543,VALID,27,VALID,0.808984,
2009-03-26, 02:21:04,VALID,1001.36,VALID,0,VALID,95.3626,VALID,0,VALID,22.4136,VALID,72,VALID,1.50312,
2009-03-26, 02:22:04,VALID,1001.35,VALID,0,VALID,95.4008,VALID,0,VALID,22.4348,VALID,80,VALID,1.31328,
2009-03-26, 02:23:04,VALID,1001.36,VALID,0,VALID,95.416,VALID,0,VALID,22.4136,VALID,100,VALID,0.477344,
2009-03-26, 02:24:04,VALID,1001.38,VALID,0,VALID,95.4008,VALID,0,VALID,22.4348,VALID,313,VALID,0.748828,
2009-03-26, 02:25:04,VALID,1001.39,VALID,0,VALID,95.416,VALID,0,VALID,22.4136,VALID,302,VALID,1.44922,
2009-03-26, 02:26:04,VALID,1001.37,VALID,0,VALID,95.416,VALID,0,VALID,22.4348,VALID,314,VALID,0.881641,
2009-03-26, 02:27:04,VALID,1001.38,VALID,0,VALID,95.3855,VALID,0,VALID,22.3746,VALID,355,VALID,0.769922,
2009-03-26, 02:28:04,VALID,1001.34,VALID,0,VALID,95.3168,VALID,0,VALID,22.3551,VALID,57,VALID,1.4457,
2009-03-26, 02:29:04,VALID,1001.3,VALID,0,VALID,95.2558,VALID,0,VALID,22.3763,VALID,66,VALID,1.84687,
2009-03-26, 02:30:04,VALID,1001.31,VALID,0,VALID,95.1948,VALID,0,VALID,22.3356,VALID,73,VALID,1.69414,
2009-03-26, 02:31:04,VALID,1001.33,VALID,0,VALID,95.1032,VALID,0,VALID,22.3958,VALID,64,VALID,1.92891,
2009-03-26, 02:32:04,VALID,1001.36,VALID,0,VALID,95.088,VALID,0,VALID,22.3746,VALID,36,VALID,0.8375,
2009-03-26, 02:33:04,VALID,1001.37,VALID,0,VALID,95.1185,VALID,0,VALID,22.3746,VALID,305,VALID,1.70039,
2009-03-26, 02:34:04,VALID,1001.35,VALID,0,VALID,95.149,VALID,0,VALID,22.3941,VALID,299,VALID,1.07227,
2009-03-26, 02:35:04,VALID,1001.34,VALID,0,VALID,95.149,VALID,0,VALID,22.3958,VALID,323,VALID,1.0418,
2009-03-26, 02:36:04,VALID,1001.37,VALID,0,VALID,95.1337,VALID,0,VALID,22.3551,VALID,18,VALID,1.16445,
2009-03-26, 02:37:04,VALID,1001.32,VALID,0,VALID,95.1719,VALID,0,VALID,22.3356,VALID,29,VALID,0.893359,
2009-03-26, 02:38:04,VALID,1001.28,VALID,0,VALID,95.088,VALID,0,VALID,22.3551,VALID,63,VALID,1.29531,
2009-03-26, 02:39:04,VALID,1001.29,VALID,0,VALID,95.0269,VALID,0,VALID,22.3551,VALID,53,VALID,1.42969,
2009-03-26, 02:40:04,VALID,1001.27,VALID,0,VALID,95.0574,VALID,0,VALID,22.3746,VALID,48,VALID,1.02109,
2009-03-26, 02:41:04,VALID,1001.28,VALID,0,VALID,95.1261,VALID,0,VALID,22.3746,VALID,38,VALID,1.12734,
2009-03-26, 02:42:04,VALID,1001.24,VALID,0,VALID,95.1108,VALID,0,VALID,22.3941,VALID,37,VALID,0.741797,
2009-03-26, 02:43:04,VALID,1001.27,VALID,0,VALID,95.1185,VALID,0,VALID,22.4153,VALID,3,VALID,0.826563,
2009-03-26, 02:44:04,VALID,1001.25,VALID,0,VALID,95.1185,VALID,0,VALID,22.3958,VALID,23,VALID,1.03164,
2009-03-26, 02:45:04,VALID,1001.23,VALID,0,VALID,95.1108,VALID,0,VALID,22.3551,VALID,26,VALID,0.989844,
2009-03-26, 02:46:04,VALID,1001.23,VALID,0,VALID,95.0803,VALID,0,VALID,22.3746,VALID,50,VALID,1.27852,
2009-03-26, 02:47:04,VALID,1001.22,VALID,0,VALID,95.0574,VALID,0,VALID,22.3763,VALID,60,VALID,1.34414,
2009-03-26, 02:48:04,VALID,1001.21,VALID,0,VALID,95.004,VALID,0,VALID,22.3958,VALID,61,VALID,1.73281,
2009-03-26, 02:49:04,VALID,1001.21,VALID,0,VALID,94.9811,VALID,0,VALID,22.3763,VALID,54,VALID,1.68555,
2009-03-26, 02:50:04,VALID,1001.17,VALID,0,VALID,95.004,VALID,0,VALID,22.4153,VALID,42,VALID,1.53867,
2009-03-26, 02:51:04,VALID,1001.23,VALID,0,VALID,95.0574,VALID,0,VALID,22.3941,VALID,41,VALID,1.33984,
2009-03-26, 02:52:04,VALID,1001.24,VALID,0,VALID,95.1261,VALID,0.112286,VALID,22.4348,VALID,57,VALID,1.04961,
2009-03-26, 02:53:04,VALID,1001.24,VALID,0,VALID,95.1185,VALID,0,VALID,22.4136,VALID,64,VALID,1.17188,
2009-03-26, 02:54:04,VALID,1001.24,VALID,0,VALID,95.1414,VALID,0,VALID,22.4543,VALID,48,VALID,0.761719,
2009-03-26, 02:55:04,VALID,1001.25,VALID,0,VALID,95.149,VALID,0,VALID,22.4331,VALID,41,VALID,0.793359,
2009-03-26, 02:56:04,VALID,1001.24,VALID,0,VALID,95.149,VALID,0,VALID,22.4348,VALID,25,VALID,0.685938,
2009-03-26, 02:57:04,VALID,1001.23,VALID,0,VALID,95.1337,VALID,0,VALID,22.3941,VALID,64,VALID,0.308984,
2009-03-26, 02:58:04,VALID,1001.23,VALID,0,VALID,95.1032,VALID,0,VALID,22.4153,VALID,71,VALID,0.664453,
2009-03-26, 02:59:04,VALID,1001.21,VALID,0,VALID,95.1261,VALID,0,VALID,22.3958,VALID,76,VALID,0.441016,
2009-03-26, 03:00:04,VALID,1001.18,VALID,0,VALID,95.149,VALID,0,VALID,22.3551,VALID,66,VALID,0.438672,
2009-03-26, 03:01:04,VALID,1001.18,VALID,0,VALID,95.2405,VALID,0,VALID,22.3958,VALID,105,VALID,0.321484,
2009-03-26, 03:02:04,VALID,1001.19,VALID,0,VALID,95.21,VALID,0,VALID,22.3551,VALID,106,VALID,0.360156,
2009-03-26, 03:03:04,VALID,1001.18,VALID,0,VALID,95.1795,VALID,0,VALID,22.3958,VALID,106,VALID,0.283203,
2009-03-26, 03:04:04,VALID,1001.16,VALID,0,VALID,95.2177,VALID,0,VALID,22.3763,VALID,106,VALID,0.419141,
2009-03-26, 03:05:04,VALID,1001.17,VALID,0,VALID,95.2253,VALID,0,VALID,22.3763,VALID,139,VALID,0.557813,
2009-03-26, 03:06:04,VALID,1001.21,VALID,0,VALID,95.2177,VALID,0,VALID,22.3551,VALID,140,VALID,0.590234,
2009-03-26, 03:07:04,VALID,1001.16,VALID,0,VALID,95.1871,VALID,0,VALID,22.3356,VALID,140,VALID,0.457031,
2009-03-26, 03:08:04,VALID,1001.19,VALID,0,VALID,95.2177,VALID,0,VALID,22.3356,VALID,140,VALID,0.341016,
2009-03-26, 03:09:04,VALID,1001.17,VALID,0,VALID,95.1719,VALID,0,VALID,22.3568,VALID,140,VALID,0.405859,
2009-03-26, 03:10:04,VALID,1001.18,VALID,0,VALID,95.2177,VALID,0,VALID,22.3356,VALID,139,VALID,0.43125,
2009-03-26, 03:11:04,VALID,1001.17,VALID,0,VALID,95.1948,VALID,0,VALID,22.3551,VALID,137,VALID,0.298438,
2009-03-26, 03:12:04,VALID,1001.21,VALID,0,VALID,95.1948,VALID,0,VALID,22.3551,VALID,137,VALID,0.169531,
2009-03-26, 03:13:04,VALID,1001.22,VALID,0,VALID,95.2482,VALID,0,VALID,22.3763,VALID,137,VALID,0.358203,
2009-03-26, 03:14:04,VALID,1001.22,VALID,0,VALID,95.294,VALID,0,VALID,22.3958,VALID,137,VALID,0.517969,
2009-03-26, 03:15:04,VALID,1001.2,VALID,0,VALID,95.3092,VALID,0,VALID,22.4153,VALID,137,VALID,0.479688,
2009-03-26, 03:16:04,VALID,1001.21,VALID,0,VALID,95.294,VALID,0,VALID,22.3941,VALID,137,VALID,0.434766,
2009-03-26, 03:17:04,VALID,1001.25,VALID,0,VALID,95.3168,VALID,0,VALID,22.4136,VALID,137,VALID,0.475,
2009-03-26, 03:18:04,VALID,1001.24,VALID,0,VALID,95.294,VALID,0,VALID,22.3941,VALID,129,VALID,0.376953,
2009-03-26, 03:19:04,VALID,1001.25,VALID,0,VALID,95.3092,VALID,0,VALID,22.4348,VALID,109,VALID,0.529297,
2009-03-26, 03:20:04,VALID,1001.24,VALID,0,VALID,95.3168,VALID,0,VALID,22.4331,VALID,82,VALID,0.597656,
2009-03-26, 03:21:04,VALID,1001.25,VALID,0,VALID,95.2787,VALID,0,VALID,22.4331,VALID,66,VALID,0.864844,
2009-03-26, 03:22:04,VALID,1001.26,VALID,0,VALID,95.2711,VALID,0,VALID,22.4348,VALID,60,VALID,0.782422,
2009-03-26, 03:23:04,VALID,1001.28,VALID,0,VALID,95.2787,VALID,0,VALID,22.4331,VALID,60,VALID,0.665625,
2009-03-26, 03:24:04,VALID,1001.28,VALID,0,VALID,95.2863,VALID,0,VALID,22.4543,VALID,60,VALID,0.608984,
2009-03-26, 03:25:04,VALID,1001.27,VALID,0,VALID,95.21,VALID,0,VALID,22.4543,VALID,56,VALID,1.0375,
2009-03-26, 03:26:04,VALID,1001.26,VALID,0,VALID,95.1871,VALID,0,VALID,22.4153,VALID,46,VALID,1.33711,
2009-03-26, 03:27:04,VALID,1001.29,VALID,0,VALID,95.1871,VALID,0,VALID,22.3941,VALID,37,VALID,1.46836,
2009-03-26, 03:28:04,VALID,1001.29,VALID,0,VALID,95.1871,VALID,0,VALID,22.3746,VALID,34,VALID,1.30273,
2009-03-26, 03:29:04,VALID,1001.27,VALID,0,VALID,95.2177,VALID,0,VALID,22.3763,VALID,32,VALID,0.987891,
2009-03-26, 03:30:04,VALID,1001.27,VALID,0,VALID,95.2253,VALID,0,VALID,22.3551,VALID,33,VALID,0.794531,
2009-03-26, 03:31:04,VALID,1001.24,VALID,0,VALID,95.1795,VALID,0,VALID,22.3568,VALID,38,VALID,0.908594,
2009-03-26, 03:32:04,VALID,1001.24,VALID,0,VALID,95.2024,VALID,0,VALID,22.3161,VALID,37,VALID,0.764063,
2009-03-26, 03:33:04,VALID,1001.25,VALID,0,VALID,95.2329,VALID,0,VALID,22.3178,VALID,41,VALID,0.642969,
2009-03-26, 03:34:04,VALID,1001.24,VALID,0,VALID,95.21,VALID,0,VALID,22.3178,VALID,43,VALID,0.277734,
2009-03-26, 03:35:04,VALID,1001.23,VALID,0,VALID,95.2329,VALID,0,VALID,22.3178,VALID,43,VALID,0.0664063,
2009-03-26, 03:36:04,VALID,1001.23,VALID,0,VALID,95.2787,VALID,0,VALID,22.2966,VALID,43,VALID,0.164063,
2009-03-26, 03:37:04,VALID,1001.2,VALID,0,VALID,95.3321,VALID,0,VALID,22.3178,VALID,43,VALID,0.348437,
2009-03-26, 03:38:04,VALID,1001.21,VALID,0,VALID,95.3245,VALID,0,VALID,22.3178,VALID,77,VALID,0.476172,
2009-03-26, 03:39:04,VALID,1001.18,VALID,0,VALID,95.3474,VALID,0,VALID,22.3178,VALID,86,VALID,0.745313,
2009-03-26, 03:40:04,VALID,1001.19,VALID,0,VALID,95.3474,VALID,0,VALID,22.3178,VALID,85,VALID,0.998438,
2009-03-26, 03:41:04,VALID,1001.17,VALID,0,VALID,95.3092,VALID,0,VALID,22.3178,VALID,79,VALID,1.16016,
2009-03-26, 03:42:04,VALID,1001.18,VALID,0,VALID,95.3092,VALID,0,VALID,22.3373,VALID,72,VALID,0.974609,
2009-03-26, 03:43:04,VALID,1001.2,VALID,0,VALID,95.3168,VALID,0,VALID,22.3373,VALID,81,VALID,0.437891,
2009-03-26, 03:44:04,VALID,1001.21,VALID,0,VALID,95.3092,VALID,0,VALID,22.3178,VALID,81,VALID,0.0410156,
2009-03-26, 03:45:04,VALID,1001.21,VALID,0.5,VALID,95.3168,VALID,0,VALID,22.3178,VALID,81,VALID,0.0742188,
2009-03-26, 03:46:04,VALID,1001.21,VALID,0,VALID,95.3092,VALID,0,VALID,22.3178,VALID,81,VALID,0.000390625,